EUTELSAT 7C (44334 NORAD) Tracking and Keplerian Element Data

This shows tracking and keplerian element data for the satellite.

Feedback or suggestion? Click here.




ElementValue
Catalog44334
NameEUTELSAT 7C
Epoch Orbit60
Epoch Day200.74902782
Epoch Year2019
RAAN51.1304
Inclination4.6266
Eccentricity0.6331843
Argument of Perigee195.2554
Mean Anonmoly240.2326
Mean Motion1.79081214
Decay Rate-1.05E-06
L11 44334U 19034B 19200.74902782 -.00000105 00000-0 00000+0 0 9992
L22 44334 4.6266 51.1304 6331843 195.2554 240.2326 1.79081214 605

Live tracking and technical data element details for EUTELSAT 7C (NORAD 44334). EUTELSAT 7C can be tracked NOW for your location showing map with azimuth and elevation plus other details from your city location.

Track the satellite on the map from your city or location and see movement details for azimuth, elevation, latitude, longitude, range, height, and movement on the map or in text.







IsCatalogInMostPopularTable: catalog: 44334, numindb: 13
Update: records affected: 1



GetName: 44334 EUTELSAT 7C

Hit Count: updated at: Sun, 21 Jul 2019 21:01:02 GMT